Location: Corralito
(10.2667°N, 66.9500°W)
Time: 18:38:51
(UTC+00:00)

Cosmos 2251 Rocket - Pass Details

Date: 09 December 2023
Orbit: 763 x 790 km, 74.0° (Epoch: 03 March)

Event Time Altitude Azimuth Distance (km) Brightness Sun altitude
Rises 23:33:20 0° 315° (NW) 3,274 7.1 -20.7°
Reaches altitude 10° 23:36:53 10° 291° (WNW) 2,347 6.7 -21.5°
Maximum altitude 23:39:35 14° 260° (W) 2,073 6.7 -22.1°
Drops below altitude 10° 23:42:17 10° 230° (SW) 2,346 7.0 -22.8°
Sets 23:45:51 0° 205° (SSW) 3,272 7.4 -23.6°
